ES0THZ-9 Weather Reports


time (UTC)temp
C
wind
direction
speed
KPH
gust
KPH
rain 1hr
cm
rain 24hr
cm
rain mn
cm
humidity
%
barometer
mb
20260906051027 12 281 9.7 16.1 0.00 0.56 0.41 83 1006.7
20260906050036 12 278 9.7 17.7 0.00 0.56 0.41 85 1006.5
20260906045043 12 274 9.7 16.1 0.00 0.56 0.41 86 1006.4
20260906044021 12 270 8.0 14.5 0.00 0.56 0.41 87 1006.1
20260906043039 12 270 8.0 11.3 0.00 0.56 0.41 87 1005.8
20260906042017 12 270 6.4 12.9 0.00 0.56 0.41 87 1005.7
20260906041015 12 270 8.0 12.9 0.00 0.56 0.41 87 1005.5
20260906040534 12 270 8.0 12.9 0.00 0.56 0.41 87 1005.3
20260906035012 12 270 6.4 11.3 0.00 0.56 0.41 87 1005.0
20260906034019 12 270 8.0 11.3 0.00 0.56 0.41 87 1004.8
20260906033028 12 270 8.0 16.1 0.00 0.56 0.41 87 1004.7
20260906032015 12 280 8.0 16.1 0.00 0.56 0.41 88 1004.4
20260906031014 12 278 9.7 14.5 0.00 0.56 0.41 88 1004.2
20260906025500 12 275 8.0 14.5 0.00 0.56 0.41 88 1004.0
20260906024518 12 275 9.7 14.5 0.03 0.56 0.41 88 1003.9
20260906023456 12 278 11.3 16.1 0.05 0.56 0.41 88 1003.7
20260906022514 12 270 9.7 12.9 0.05 0.56 0.41 88 1003.5
20260906021453 12 265 8.0 11.3 0.05 0.56 0.41 88 1003.4
20260906020450 12 264 8.0 11.3 0.05 0.56 0.41 88 1003.3
20260906015508 12 277 9.7 19.3 0.05 0.53 0.38 88 1003.4
20260906014506 12 264 9.7 14.5 0.03 0.53 0.36 87 1003.4
20260906013504 12 260 6.4 11.3 0.00 0.51 0.33 87 1003.3
20260906012441 12 256 6.4 11.3 0.05 0.51 0.33 87 1003.1
20260906011440 12 253 6.4 11.3 0.05 0.51 0.33 87 1003.0
20260906010437 12 255 6.4 9.7 0.05 0.51 0.33 87 1002.9
20260906005456 12 259 8.0 14.5 0.05 0.51 0.33 87 1002.8
20260906004444 12 265 9.7 12.9 0.05 0.51 0.33 87 1002.8
20260906003432 12 258 8.0 12.9 0.05 0.51 0.33 86 1002.7
20260906002530 12 270 8.0 12.9 0.00 0.48 0.30 87 1002.7
20260906001428 13 280 9.7 14.5 0.00 0.48 0.30 87 1002.8
20260906000426 12 270 9.7 14.5 0.00 0.48 0.30 88 1002.7
20260905235425 12 257 9.7 12.9 0.00 0.48 0.30 88 1002.4
20260905234423 12 252 6.4 11.3 0.00 0.48 0.28 88 1002.2
20260905233420 12 250 8.0 11.3 0.00 0.48 0.28 88 1002.2
20260905232418 12 237 9.7 12.9 0.00 0.48 0.28 87 1002.1
20260905231416 12 234 11.3 17.7 0.00 0.48 0.28 87 1002.1
20260905230414 12 288 6.4 12.9 0.00 0.48 0.28 87 1002.1
20260905225431 12 280 8.0 14.5 0.00 0.48 0.28 87 1002.1
20260905224410 12 277 6.4 16.1 0.00 0.48 0.28 86 1002.1
20260905223408 12 298 11.3 17.7 0.03 0.48 0.28 86 1002.1
20260905222406 12 294 9.7 17.7 0.20 0.48 0.28 85 1002.1
20260905221424 12 262 8.0 19.3 0.28 0.48 0.28 85 1002.0
20260905220402 12 245 6.4 9.7 0.28 0.48 0.28 84 1002.0
20260905215400 12 243 8.0 12.9 0.28 0.48 0.28 84 1002.0
20260905214418 12 251 6.4 9.7 0.28 0.48 0.28 83 1002.0
20260905213356 13 283 11.3 16.1 0.25 0.43 0.25 83 1002.0
20260905212414 13 287 11.3 32.2 0.08 0.25 0.08 81 1002.0
20260905211352 14 282 11.3 20.9 0.00 0.20 0.00 82 1001.7
20260905210350 14 261 6.4 12.9 0.00 0.20 0.00 82 1001.4
20260905205348 14 260 6.4 11.3 0.00 0.20 0.20 82 1001.2
20260905204405 13 261 6.4 11.3 0.00 0.20 0.20 82 1001.3
20260905203343 13 262 6.4 9.7 0.00 0.20 0.20 82 1001.2
20260905202341 13 259 6.4 9.7 0.00 0.20 0.20 82 1001.2
20260905201340 14 260 6.4 11.3 0.00 0.20 0.20 81 1001.1
20260905200357 14 259 6.4 9.7 0.00 0.20 0.20 80 1001.0
20260905195338 14 259 6.4 11.3 0.00 0.20 0.20 80 1000.9
20260905190326 15 259 6.4 11.3 0.00 0.20 0.20 79 1000.8
20260905185324 15 264 6.4 11.3 0.00 0.20 0.20 79 1000.8
20260905184322 15 260 6.4 9.7 0.00 0.20 0.20 79 1000.9
20260905183321 15 260 6.4 9.7 0.00 0.20 0.20 79 1000.8
20260905182338 15 263 6.4 11.3 0.00 0.20 0.20 79 1000.7
20260905181316 15 263 6.4 11.3 0.00 0.20 0.20 79 1000.7
20260905180314 15 264 6.4 11.3 0.00 0.20 0.20 79 1000.6
20260905175312 15 264 6.4 14.5 0.00 0.20 0.20 78 1000.5
20260905174311 15 265 6.4 9.7 0.00 0.20 0.20 78 1000.4
20260905173309 16 263 6.4 11.3 0.00 0.20 0.20 78 1000.3
20260905172306 16 261 6.4 11.3 0.00 0.20 0.20 77 1000.1
20260905171313 16 265 6.4 9.7 0.00 0.20 0.20 77 1000.0
20260905170302 16 270 6.4 11.3 0.00 0.20 0.20 76 1000.0
20260905165300 16 270 6.4 11.3 0.00 0.20 0.20 76 999.8
20260905164258 16 276 6.4 11.3 0.00 0.20 0.20 76 999.7
20260905163257 16 270 6.4 11.3 0.00 0.20 0.20 75 999.5
20260905162255 16 281 6.4 11.3 0.00 0.20 0.20 75 999.4
20260905161252 17 283 6.4 11.3 0.00 0.20 0.20 74 999.3
20260905160249 17 281 6.4 11.3 0.00 0.20 0.20 74 999.2
20260905155248 17 289 9.7 17.7 0.00 0.20 0.20 72 999.1
20260905154246 17 282 6.4 14.5 0.00 0.20 0.20 74 999.0
20260905153244 17 288 6.4 12.9 0.00 0.20 0.20 75 999.0
20260905152242 17 290 8.0 16.1 0.00 0.20 0.20 73 998.9
20260905151239 17 287 6.4 14.5 0.00 0.20 0.20 72 998.8
20260905150238 18 277 8.0 16.1 0.00 0.20 0.20 72 998.7
20260905145236 18 270 6.4 12.9 0.00 0.20 0.20 72 998.6
20260905144304 18 280 6.4 9.7 0.00 0.20 0.20 72 998.5
20260905143231 18 290 9.7 19.3 0.00 0.20 0.20 71 998.3
20260905142230 18 286 6.4 12.9 0.00 0.20 0.20 71 998.2
20260905141228 18 291 4.8 11.3 0.00 0.20 0.20 71 998.0
20260905140226 18 295 4.8 11.3 0.00 0.20 0.20 72 997.9
20260905135244 18 322 6.4 14.5 0.00 0.20 0.20 70 997.7
20260905134223 19 302 3.2 6.4 0.00 0.20 0.20 73 997.6
20260905133221 19 292 3.2 8.0 0.00 0.20 0.20 72 997.4
20260905132218 18 348 4.8 9.7 0.00 0.20 0.20 72 997.3
20260905131216 18 19 8.0 14.5 0.00 0.20 0.20 72 997.2
20260905130234 18 15 6.4 17.7 0.00 0.20 0.20 72 997.1
20260905125212 18 306 4.8 9.7 0.00 0.20 0.20 74 997.0
20260905124210 18 246 3.2 4.8 0.00 0.20 0.20 81 996.8
20260905123208 18 217 3.2 6.4 0.00 0.20 0.20 80 996.8
20260905122206 18 227 4.8 9.7 0.00 0.20 0.20 81 996.6
20260905121204 18 47 4.8 9.7 0.00 0.20 0.20 82 996.5
20260905120202 18 71 3.2 4.8 0.00 0.20 0.20 80 996.4
20260905115200 18 230 3.2 9.7 0.00 0.20 0.20 80 996.3
20260905114158 19 127 3.2 6.4 0.03 0.20 0.20 78 996.2
20260905113157 18 49 1.6 4.8 0.03 0.20 0.20 81 996.1
20260905112154 17 40 3.2 6.4 0.03 0.20 0.20 80 996.0
20260905111213 17 23 3.2 8.0 0.03 0.20 0.20 81 995.9
20260905110150 17 47 3.2 6.4 0.03 0.20 0.20 81 995.8
20260905105148 18 39 4.8 11.3 0.03 0.20 0.20 77 995.7
20260905104146 19 50 8.0 12.9 0.00 0.18 0.18 78 995.6
20260905103144 20 47 9.7 17.7 0.00 0.18 0.18 78 995.4
20260905102142 20 270 3.2 8.0 0.00 0.18 0.18 74 995.4
20260905101140 20 270 3.2 8.0 0.00 0.18 0.18 77 995.3
20260905100138 21 270 3.2 8.0 0.00 0.18 0.18 78 995.2
20260905095137 21 253 3.2 6.4 0.00 0.18 0.18 79 995.1
20260905094134 20 6 3.2 6.4 0.00 0.18 0.18 84 995.0
20260905093132 19 75 3.2 6.4 0.00 0.18 0.18 86 995.0
20260905092130 18 40 8.0 11.3 0.00 0.18 0.18 87 995.0
20260905091147 18 56 6.4 14.5 0.00 0.18 0.18 89 994.9
20260905090127 17 45 8.0 14.5 0.00 0.18 0.18 89 994.7
20260905085124 17 46 9.7 16.1 0.00 0.18 0.18 88 994.6
20260905084142 16 45 6.4 14.5 0.00 0.18 0.18 89 994.5
20260905083120 16 42 8.0 16.1 0.03 0.18 0.18 89 994.4
20260905082119 15 41 6.4 12.9 0.15 0.18 0.18 89 994.3
20260905081116 15 48 4.8 9.7 0.15 0.18 0.18 88 994.2
20260905080114 14 42 6.4 14.5 0.15 0.18 0.18 86 994.1
20260905075112 14 41 8.0 16.1 0.15 0.18 0.18 84 994.0
20260905074110 15 0 8.0 19.3 0.15 0.18 0.18 81 994.0
20260905073130 18 333 6.4 14.5 0.10 0.15 0.15 76 993.9
20260905072126 19 35 4.8 9.7 0.00 0.03 0.03 77 993.6
20260905071104 19 35 4.8 9.7 0.00 0.03 0.03 78 993.6
20260905070133 18 37 3.2 8.0 0.00 0.03 0.03 79 993.5
20260905065101 18 42 3.2 8.0 0.00 0.03 0.03 79 993.5
20260905064058 18 90 3.2 6.4 0.00 0.03 0.03 81 993.3
20260905063056 17 51 3.2 6.4 0.00 0.03 0.03 81 993.2
20260905062114 18 32 4.8 9.7 0.00 0.03 0.03 84 993.2
20260905061052 17 30 4.8 8.0 0.00 0.03 0.03 86 993.2
20260905060100 17 35 4.8 6.4 0.00 0.03 0.03 87 993.1
20260905055049 16 38 4.8 9.7 0.00 0.03 0.03 89 993.1
20260905054046 15 34 3.2 6.4 0.00 0.03 0.03 89 992.9
20260905053044 14 32 3.2 6.4 0.00 0.03 0.03 89 992.9
20260905052043 13 36 4.8 8.0 0.00 0.03 0.03 89 993.0